Orbital Elements at Epoch 2459200.5 (2020-Dec-17.0) TDB
Reference: JPL 16 (heliocentric ecliptic J2000)
Element | Value | Uncertainty (1-sigma) | Units |
e | .1188070624272259 | 8.6196e-08 | |
a | 3.117923532085286 | 3.2569e-08 | au |
q | 2.747492196365513 | 2.8237e-07 | au |
i | 21.55535358729434 | 9.1394e-06 | deg |
node | 330.0062209506182 | 1.5138e-05 | deg |
peri | 31.47509999612873 | 3.1485e-05 | deg |
M | 257.2162371836311 | 2.9264e-05 | deg |
tp | 2459774.641088777294 (2022-Jul-14.14108878) | 0.00016884 | TDB |
period | 2010.928441383244 5.51 | 3.1508e-05 8.626e-08 | d yr |
n | .1790217854556621 | 2.805e-09 | deg/d |
Q | 3.488354867805059 | 3.6438e-08 | au |
|
| | Orbit Determination Parameters
Additional Information
|